Year,Month,Day,Hour,Minute,Value (Times are PST for windgust in km/hr)
2008,12,16,00,00,16.10
2008,12,16,00,01,11.30
2008,12,16,00,02,8.10
2008,12,16,00,03,9.60
2008,12,16,00,04,4.80
2008,12,16,00,05,8.10
2008,12,16,00,06,9.60
2008,12,16,00,07,6.40
2008,12,16,00,08,6.40
2008,12,16,00,09,4.80
2008,12,16,00,10,8.10
2008,12,16,00,11,6.40
2008,12,16,00,12,1.60
2008,12,16,00,13,4.80
2008,12,16,00,14,4.80
2008,12,16,00,15,1.60
2008,12,16,00,16,4.80
2008,12,16,00,17,1.60
2008,12,16,00,18,6.40
2008,12,16,00,19,9.60
2008,12,16,00,20,16.10
2008,12,16,00,21,9.60
2008,12,16,00,22,9.60
2008,12,16,00,23,17.70
2008,12,16,00,24,16.10
2008,12,16,00,25,9.60
2008,12,16,00,26,9.60
2008,12,16,00,27,4.80
2008,12,16,00,28,1.60
2008,12,16,00,29,0.00
2008,12,16,00,30,12.90
2008,12,16,00,31,9.60
2008,12,16,00,32,4.80
2008,12,16,00,33,1.60
2008,12,16,00,34,1.60
2008,12,16,00,35,6.40
2008,12,16,00,36,1.60
2008,12,16,00,37,9.60
2008,12,16,00,38,9.60
2008,12,16,00,39,4.80
2008,12,16,00,40,1.60
2008,12,16,00,41,3.20
2008,12,16,00,42,3.20
2008,12,16,00,43,1.60
2008,12,16,00,44,3.20
2008,12,16,00,45,11.30
2008,12,16,00,46,6.40
2008,12,16,00,47,6.40
2008,12,16,00,48,9.60
2008,12,16,00,49,11.30
2008,12,16,00,50,4.80
2008,12,16,00,51,1.60
2008,12,16,00,52,1.60
2008,12,16,00,53,3.20
2008,12,16,00,54,4.80
2008,12,16,00,55,8.10
2008,12,16,00,56,4.80
2008,12,16,00,57,8.10
2008,12,16,00,58,3.20
2008,12,16,00,59,9.60
2008,12,16,01,00,3.20
2008,12,16,01,01,6.40
2008,12,16,01,02,9.60
2008,12,16,01,03,11.30
2008,12,16,01,04,9.60
2008,12,16,01,05,17.70
2008,12,16,01,06,12.90
2008,12,16,01,07,9.60
2008,12,16,01,08,8.10
2008,12,16,01,09,9.60
2008,12,16,01,10,8.10
2008,12,16,01,11,11.30
2008,12,16,01,12,8.10
2008,12,16,01,13,8.10
2008,12,16,01,14,8.10
2008,12,16,01,15,6.40
2008,12,16,01,16,8.10
2008,12,16,01,17,12.90
2008,12,16,01,18,6.40
2008,12,16,01,19,6.40
2008,12,16,01,20,8.10
2008,12,16,01,21,9.60
2008,12,16,01,22,6.40
2008,12,16,01,23,6.40
2008,12,16,01,24,3.20
2008,12,16,01,25,6.40
2008,12,16,01,26,8.10
2008,12,16,01,27,6.40
2008,12,16,01,28,14.50
2008,12,16,01,29,4.80
2008,12,16,01,30,6.40
2008,12,16,01,31,6.40
2008,12,16,01,32,4.80
2008,12,16,01,33,9.60
2008,12,16,01,34,4.80
2008,12,16,01,35,8.10
2008,12,16,01,36,4.80
2008,12,16,01,37,9.60
2008,12,16,01,38,9.60
2008,12,16,01,39,6.40
2008,12,16,01,40,9.60
2008,12,16,01,41,14.50
2008,12,16,01,42,6.40
2008,12,16,01,43,11.30
2008,12,16,01,44,6.40
2008,12,16,01,45,3.20
2008,12,16,01,46,8.10
2008,12,16,01,47,11.30
2008,12,16,01,48,8.10
2008,12,16,01,49,11.30
2008,12,16,01,50,11.30
2008,12,16,01,51,8.10
2008,12,16,01,52,8.10
2008,12,16,01,53,9.60
2008,12,16,01,54,8.10
2008,12,16,01,55,6.40
2008,12,16,01,56,14.50
2008,12,16,01,57,9.60
2008,12,16,01,58,6.40
2008,12,16,01,59,4.80
2008,12,16,02,00,9.60
2008,12,16,02,01,6.40
2008,12,16,02,02,9.60
2008,12,16,02,03,12.90
2008,12,16,02,04,9.60
2008,12,16,02,05,11.30
2008,12,16,02,06,8.10
2008,12,16,02,07,16.10
2008,12,16,02,08,12.90
2008,12,16,02,09,16.10
2008,12,16,02,10,9.60
2008,12,16,02,11,11.30
2008,12,16,02,12,6.40
2008,12,16,02,13,8.10
2008,12,16,02,14,9.60
2008,12,16,02,15,11.30
2008,12,16,02,16,14.50
2008,12,16,02,17,9.60
2008,12,16,02,18,3.20
2008,12,16,02,19,3.20
2008,12,16,02,20,9.60
2008,12,16,02,21,3.20
2008,12,16,02,22,6.40
2008,12,16,02,23,11.30
2008,12,16,02,24,6.40
2008,12,16,02,25,6.40
2008,12,16,02,26,6.40
2008,12,16,02,27,6.40
2008,12,16,02,28,3.20
2008,12,16,02,29,6.40
2008,12,16,02,30,4.80
2008,12,16,02,31,4.80
2008,12,16,02,32,3.20
2008,12,16,02,33,3.20
2008,12,16,02,34,3.20
2008,12,16,02,35,3.20
2008,12,16,02,36,4.80
2008,12,16,02,37,3.20
2008,12,16,02,38,4.80
2008,12,16,02,39,4.80
2008,12,16,02,40,3.20
2008,12,16,02,41,3.20
2008,12,16,02,42,1.60
2008,12,16,02,43,1.60
2008,12,16,02,44,3.20
2008,12,16,02,45,1.60
2008,12,16,02,46,1.60
2008,12,16,02,47,0.00
2008,12,16,02,48,0.00
2008,12,16,02,49,1.60
2008,12,16,02,50,3.20
2008,12,16,02,51,1.60
2008,12,16,02,52,1.60
2008,12,16,02,53,1.60
2008,12,16,02,54,1.60
2008,12,16,02,55,1.60
2008,12,16,02,56,1.60
2008,12,16,02,57,4.80
2008,12,16,02,58,1.60
2008,12,16,02,59,1.60
2008,12,16,03,00,4.80
2008,12,16,03,01,1.60
2008,12,16,03,02,1.60
2008,12,16,03,03,0.00
2008,12,16,03,04,0.00
2008,12,16,03,05,3.20
2008,12,16,03,06,1.60
2008,12,16,03,07,1.60
2008,12,16,03,08,3.20
2008,12,16,03,09,0.00
2008,12,16,03,10,3.20
2008,12,16,03,11,1.60
2008,12,16,03,12,0.00
2008,12,16,03,13,3.20
2008,12,16,03,14,3.20
2008,12,16,03,15,1.60
2008,12,16,03,16,1.60
2008,12,16,03,17,1.60
2008,12,16,03,18,1.60
2008,12,16,03,19,1.60
2008,12,16,03,20,3.20
2008,12,16,03,21,1.60
2008,12,16,03,22,4.80
2008,12,16,03,23,3.20
2008,12,16,03,24,3.20
2008,12,16,03,25,6.40
2008,12,16,03,26,16.10
2008,12,16,03,27,4.80
2008,12,16,03,28,4.80
2008,12,16,03,29,3.20
2008,12,16,03,30,4.80
2008,12,16,03,31,1.60
2008,12,16,03,32,0.00
2008,12,16,03,33,0.00
2008,12,16,03,34,1.60
2008,12,16,03,35,1.60
2008,12,16,03,36,1.60
2008,12,16,03,37,3.20
2008,12,16,03,38,4.80
2008,12,16,03,39,4.80
2008,12,16,03,40,1.60
2008,12,16,03,41,3.20
2008,12,16,03,42,3.20
2008,12,16,03,43,3.20
2008,12,16,03,44,1.60
2008,12,16,03,45,4.80
2008,12,16,03,46,3.20
2008,12,16,03,47,1.60
2008,12,16,03,48,3.20
2008,12,16,03,49,4.80
2008,12,16,03,50,3.20
2008,12,16,03,51,3.20
2008,12,16,03,52,0.00
2008,12,16,03,53,3.20
2008,12,16,03,54,1.60
2008,12,16,03,55,1.60
2008,12,16,03,56,0.00
2008,12,16,03,57,1.60
2008,12,16,03,58,1.60
2008,12,16,03,59,1.60
2008,12,16,04,00,1.60
2008,12,16,04,01,0.00
2008,12,16,04,02,0.00
2008,12,16,04,03,0.00
2008,12,16,04,05,0.00
2008,12,16,04,06,0.00
2008,12,16,04,24,0.00
2008,12,16,04,35,1.60
2008,12,16,04,47,0.00
2008,12,16,04,58,0.00
2008,12,16,05,09,0.00
2008,12,16,05,20,0.00
2008,12,16,05,32,1.60
2008,12,16,05,42,0.00
2008,12,16,05,56,0.00
2008,12,16,06,06,0.00
2008,12,16,06,16,0.00
2008,12,16,06,26,0.00
2008,12,16,06,28,3.20
2008,12,16,06,29,1.60
2008,12,16,06,30,1.60
2008,12,16,06,31,1.60
2008,12,16,06,32,1.60
2008,12,16,06,33,1.60
2008,12,16,06,34,1.60
2008,12,16,06,35,1.60
2008,12,16,06,36,1.60
2008,12,16,06,37,1.60
2008,12,16,06,38,0.00
2008,12,16,06,39,1.60
2008,12,16,06,40,1.60
2008,12,16,06,41,0.00
2008,12,16,06,42,0.00
2008,12,16,06,43,1.60
2008,12,16,06,44,0.00
2008,12,16,06,45,0.00
2008,12,16,06,46,0.00
2008,12,16,06,47,1.60
2008,12,16,06,48,1.60
2008,12,16,06,49,1.60
2008,12,16,06,50,1.60
2008,12,16,06,51,0.00
2008,12,16,06,52,1.60
2008,12,16,06,53,0.00
2008,12,16,06,54,3.20
2008,12,16,06,55,1.60
2008,12,16,06,56,1.60
2008,12,16,06,57,3.20
2008,12,16,06,58,3.20
2008,12,16,06,59,3.20
2008,12,16,07,00,1.60
2008,12,16,07,01,0.00
2008,12,16,07,02,0.00
2008,12,16,07,03,1.60
2008,12,16,07,04,0.00
2008,12,16,07,05,0.00
2008,12,16,07,06,0.00
2008,12,16,07,07,0.00
2008,12,16,07,08,0.00
2008,12,16,07,09,0.00
2008,12,16,07,10,0.00
2008,12,16,07,11,0.00
2008,12,16,07,12,0.00
2008,12,16,07,13,0.00
2008,12,16,07,14,0.00
2008,12,16,07,15,0.00
2008,12,16,07,16,0.00
2008,12,16,07,17,0.00
2008,12,16,07,18,0.00
2008,12,16,07,19,0.00
2008,12,16,07,20,0.00
2008,12,16,07,21,0.00
2008,12,16,07,22,3.20
2008,12,16,07,23,1.60
2008,12,16,07,24,1.60
2008,12,16,07,25,0.00
2008,12,16,07,26,1.60
2008,12,16,07,27,0.00
2008,12,16,07,28,1.60
2008,12,16,07,29,0.00
2008,12,16,07,30,0.00
2008,12,16,07,31,1.60
2008,12,16,07,32,0.00
2008,12,16,07,33,1.60
2008,12,16,07,34,0.00
2008,12,16,07,35,0.00
2008,12,16,07,36,0.00
2008,12,16,07,37,0.00
2008,12,16,07,38,0.00
2008,12,16,07,39,0.00
2008,12,16,07,40,1.60
2008,12,16,07,41,3.20
2008,12,16,07,42,4.80
2008,12,16,07,43,1.60
2008,12,16,07,44,0.00
2008,12,16,07,45,0.00
2008,12,16,07,46,0.00
2008,12,16,07,47,1.60
2008,12,16,07,48,0.00
2008,12,16,07,49,0.00
2008,12,16,07,50,0.00
2008,12,16,07,51,0.00
2008,12,16,07,52,1.60
2008,12,16,07,53,1.60
2008,12,16,07,54,1.60
2008,12,16,07,55,1.60
2008,12,16,07,56,1.60
2008,12,16,07,57,1.60
2008,12,16,07,58,1.60
2008,12,16,07,59,0.00
2008,12,16,08,00,0.00
2008,12,16,08,01,1.60
2008,12,16,08,02,1.60
2008,12,16,08,03,1.60
2008,12,16,08,04,0.00
2008,12,16,08,05,0.00
2008,12,16,08,06,0.00
2008,12,16,08,07,4.80
2008,12,16,08,08,1.60
2008,12,16,08,09,1.60
2008,12,16,08,10,1.60
2008,12,16,08,11,1.60
2008,12,16,08,12,1.60
2008,12,16,08,13,3.20
2008,12,16,08,14,0.00
2008,12,16,08,15,0.00
2008,12,16,08,16,3.20
2008,12,16,08,17,1.60
2008,12,16,08,18,1.60
2008,12,16,08,19,1.60
2008,12,16,08,20,1.60
2008,12,16,08,21,1.60
2008,12,16,08,22,0.00
2008,12,16,08,23,0.00
2008,12,16,08,24,0.00
2008,12,16,08,25,0.00
2008,12,16,08,26,0.00
2008,12,16,08,27,0.00
2008,12,16,08,28,0.00
2008,12,16,08,29,1.60
2008,12,16,08,30,1.60
2008,12,16,08,31,3.20
2008,12,16,08,32,3.20
2008,12,16,08,33,3.20
2008,12,16,08,34,3.20
2008,12,16,08,35,4.80
2008,12,16,08,36,3.20
2008,12,16,08,37,3.20
2008,12,16,08,38,4.80
2008,12,16,08,39,4.80
2008,12,16,08,40,4.80
2008,12,16,08,41,3.20
2008,12,16,08,42,1.60
2008,12,16,08,43,1.60
2008,12,16,08,44,1.60
2008,12,16,08,45,1.60
2008,12,16,08,46,3.20
2008,12,16,08,47,3.20
2008,12,16,08,48,3.20
2008,12,16,08,49,3.20
2008,12,16,08,50,3.20
2008,12,16,08,51,1.60
2008,12,16,08,52,1.60
2008,12,16,08,53,3.20
2008,12,16,08,54,3.20
2008,12,16,08,55,3.20
2008,12,16,08,56,3.20
2008,12,16,08,57,3.20
2008,12,16,08,58,1.60
2008,12,16,08,59,3.20
2008,12,16,09,00,3.20
2008,12,16,09,01,4.80
2008,12,16,09,02,4.80
2008,12,16,09,03,6.40
2008,12,16,09,04,4.80
2008,12,16,09,05,6.40
2008,12,16,09,06,4.80
2008,12,16,09,07,4.80
2008,12,16,09,08,4.80
2008,12,16,09,09,6.40
2008,12,16,09,10,4.80
2008,12,16,09,11,6.40
2008,12,16,09,12,3.20
2008,12,16,09,13,4.80
2008,12,16,09,14,3.20
2008,12,16,09,15,3.20
2008,12,16,09,16,3.20
2008,12,16,09,17,4.80
2008,12,16,09,18,4.80
2008,12,16,09,19,4.80
2008,12,16,09,20,6.40
2008,12,16,09,21,6.40
2008,12,16,09,22,6.40
2008,12,16,09,23,4.80
2008,12,16,09,24,4.80
2008,12,16,09,25,1.60
2008,12,16,09,26,1.60
2008,12,16,09,27,1.60
2008,12,16,09,28,1.60
2008,12,16,09,29,1.60
2008,12,16,09,30,8.10
2008,12,16,09,31,6.40
2008,12,16,09,32,6.40
2008,12,16,09,33,8.10
2008,12,16,09,34,8.10
2008,12,16,09,35,8.10
2008,12,16,09,36,4.80
2008,12,16,09,37,4.80
2008,12,16,09,38,1.60
2008,12,16,09,39,1.60
2008,12,16,09,40,0.00
2008,12,16,09,41,1.60
2008,12,16,09,42,1.60
2008,12,16,09,43,0.00
2008,12,16,09,44,1.60
2008,12,16,09,45,3.20
2008,12,16,09,46,3.20
2008,12,16,09,47,1.60
2008,12,16,09,48,0.00
2008,12,16,09,49,0.00
2008,12,16,09,50,1.60
2008,12,16,09,51,1.60
2008,12,16,09,52,1.60
2008,12,16,09,53,1.60
2008,12,16,09,54,1.60
2008,12,16,09,55,1.60
2008,12,16,09,56,1.60
2008,12,16,09,57,1.60
2008,12,16,09,58,1.60
2008,12,16,09,59,1.60
2008,12,16,10,00,0.00
2008,12,16,10,01,0.00
2008,12,16,10,02,1.60
2008,12,16,10,03,1.60
2008,12,16,10,04,1.60
2008,12,16,10,05,0.00
2008,12,16,10,06,0.00
2008,12,16,10,07,0.00
2008,12,16,10,08,1.60
2008,12,16,10,09,1.60
2008,12,16,10,10,0.00
2008,12,16,10,11,1.60
2008,12,16,10,12,1.60
2008,12,16,10,13,1.60
2008,12,16,10,14,0.00
2008,12,16,10,15,0.00
2008,12,16,10,16,0.00
2008,12,16,10,17,0.00
2008,12,16,10,18,0.00
2008,12,16,10,19,0.00
2008,12,16,10,20,0.00
2008,12,16,10,21,0.00
2008,12,16,10,22,0.00
2008,12,16,10,23,0.00
2008,12,16,10,24,0.00
2008,12,16,10,25,0.00
2008,12,16,10,26,3.20
2008,12,16,10,27,3.20
2008,12,16,10,28,3.20
2008,12,16,10,29,3.20
2008,12,16,10,30,3.20
2008,12,16,10,31,4.80
2008,12,16,10,32,3.20
2008,12,16,10,33,3.20
2008,12,16,10,34,1.60
2008,12,16,10,35,1.60
2008,12,16,10,36,1.60
2008,12,16,10,37,0.00
2008,12,16,10,38,0.00
2008,12,16,10,39,0.00
2008,12,16,10,40,1.60
2008,12,16,10,41,3.20
2008,12,16,10,42,1.60
2008,12,16,10,43,0.00
2008,12,16,10,44,0.00
2008,12,16,10,45,1.60
2008,12,16,10,46,1.60
2008,12,16,10,47,1.60
2008,12,16,10,48,0.00
2008,12,16,10,49,1.60
2008,12,16,10,50,0.00
2008,12,16,10,51,0.00
2008,12,16,10,52,0.00
2008,12,16,10,53,0.00
2008,12,16,10,54,0.00
2008,12,16,10,55,1.60
2008,12,16,10,56,3.20
2008,12,16,10,57,3.20
2008,12,16,10,58,1.60
2008,12,16,10,59,3.20
2008,12,16,11,00,3.20
2008,12,16,11,01,1.60
2008,12,16,11,02,1.60
2008,12,16,11,03,1.60
2008,12,16,11,04,1.60
2008,12,16,11,05,1.60
2008,12,16,11,06,1.60
2008,12,16,11,07,3.20
2008,12,16,11,08,1.60
2008,12,16,11,09,4.80
2008,12,16,11,10,1.60
2008,12,16,11,11,3.20
2008,12,16,11,12,3.20
2008,12,16,11,13,3.20
2008,12,16,11,14,0.00
2008,12,16,11,15,1.60
2008,12,16,11,16,0.00
2008,12,16,11,17,0.00
2008,12,16,11,18,3.20
2008,12,16,11,19,4.80
2008,12,16,11,20,4.80
2008,12,16,11,21,3.20
2008,12,16,11,22,4.80
2008,12,16,11,23,3.20
2008,12,16,11,24,8.10
2008,12,16,11,25,8.10
2008,12,16,11,26,6.40
2008,12,16,11,27,6.40
2008,12,16,11,28,4.80
2008,12,16,11,29,4.80
2008,12,16,11,30,3.20
2008,12,16,11,31,4.80
2008,12,16,11,32,3.20
2008,12,16,11,33,3.20
2008,12,16,11,34,3.20
2008,12,16,11,35,4.80
2008,12,16,11,36,1.60
2008,12,16,11,37,1.60
2008,12,16,11,38,1.60
2008,12,16,11,39,3.20
2008,12,16,11,40,3.20
2008,12,16,11,41,1.60
2008,12,16,11,42,1.60
2008,12,16,11,43,1.60
2008,12,16,11,44,3.20
2008,12,16,11,45,1.60
2008,12,16,11,46,4.80
2008,12,16,11,47,4.80
2008,12,16,11,48,4.80
2008,12,16,11,49,1.60
2008,12,16,11,50,1.60
2008,12,16,11,51,1.60
2008,12,16,11,52,3.20
2008,12,16,11,53,0.00
2008,12,16,11,54,1.60
2008,12,16,11,55,3.20
2008,12,16,11,56,1.60
2008,12,16,11,57,3.20
2008,12,16,11,58,1.60
2008,12,16,11,59,3.20
2008,12,16,12,00,3.20
2008,12,16,12,01,1.60
2008,12,16,12,02,0.00
2008,12,16,12,03,0.00
2008,12,16,12,04,6.40
2008,12,16,12,05,3.20
2008,12,16,12,06,3.20
2008,12,16,12,07,3.20
2008,12,16,12,08,3.20
2008,12,16,12,09,3.20
2008,12,16,12,10,1.60
2008,12,16,12,11,1.60
2008,12,16,12,12,0.00
2008,12,16,12,13,1.60
2008,12,16,12,14,1.60
2008,12,16,12,15,0.00
2008,12,16,12,16,0.00
2008,12,16,12,17,0.00
2008,12,16,12,18,3.20
2008,12,16,12,19,1.60
2008,12,16,12,20,0.00
2008,12,16,12,21,3.20
2008,12,16,12,22,3.20
2008,12,16,12,23,3.20
2008,12,16,12,24,1.60
2008,12,16,12,25,4.80
2008,12,16,12,26,4.80
2008,12,16,12,27,3.20
2008,12,16,12,28,1.60
2008,12,16,12,29,1.60
2008,12,16,12,30,0.00
2008,12,16,12,31,4.80
2008,12,16,12,32,6.40
2008,12,16,12,33,3.20
2008,12,16,12,34,4.80
2008,12,16,12,35,4.80
2008,12,16,12,36,4.80
2008,12,16,12,37,4.80
2008,12,16,12,38,3.20
2008,12,16,12,39,4.80
2008,12,16,12,40,3.20
2008,12,16,12,41,1.60
2008,12,16,12,42,0.00
2008,12,16,12,43,4.80
2008,12,16,12,44,8.10
2008,12,16,12,45,8.10
2008,12,16,12,46,4.80
2008,12,16,12,47,4.80
2008,12,16,12,48,6.40
2008,12,16,12,49,3.20
2008,12,16,12,50,4.80
2008,12,16,12,51,4.80
2008,12,16,12,52,3.20
2008,12,16,12,53,6.40
2008,12,16,12,54,4.80
2008,12,16,12,55,3.20
2008,12,16,12,56,4.80
2008,12,16,12,57,6.40
2008,12,16,12,58,3.20
2008,12,16,12,59,6.40
2008,12,16,13,00,6.40
2008,12,16,13,01,3.20
2008,12,16,13,02,3.20
2008,12,16,13,03,6.40
2008,12,16,13,04,4.80
2008,12,16,13,05,6.40
2008,12,16,13,06,4.80
2008,12,16,13,07,4.80
2008,12,16,13,08,4.80
2008,12,16,13,09,8.10
2008,12,16,13,10,3.20
2008,12,16,13,11,3.20
2008,12,16,13,12,4.80
2008,12,16,13,13,8.10
2008,12,16,13,14,6.40
2008,12,16,13,15,8.10
2008,12,16,13,16,4.80
2008,12,16,13,17,4.80
2008,12,16,13,18,6.40
2008,12,16,13,19,3.20
2008,12,16,13,20,6.40
2008,12,16,13,21,4.80
2008,12,16,13,22,3.20
2008,12,16,13,23,3.20
2008,12,16,13,24,4.80
2008,12,16,13,25,3.20
2008,12,16,13,26,0.00
2008,12,16,13,27,8.10
2008,12,16,13,28,4.80
2008,12,16,13,29,3.20
2008,12,16,13,30,3.20
2008,12,16,13,31,8.10
2008,12,16,13,32,8.10
2008,12,16,13,33,4.80
2008,12,16,13,34,4.80
2008,12,16,13,35,4.80
2008,12,16,13,36,9.60
2008,12,16,13,37,6.40
2008,12,16,13,38,8.10
2008,12,16,13,39,8.10
2008,12,16,13,40,6.40
2008,12,16,13,41,8.10
2008,12,16,13,42,6.40
2008,12,16,13,43,4.80
2008,12,16,13,44,8.10
2008,12,16,13,45,9.60
2008,12,16,13,46,9.60
2008,12,16,13,47,6.40
2008,12,16,13,48,11.30
2008,12,16,13,49,8.10
2008,12,16,13,50,8.10
2008,12,16,13,51,4.80
2008,12,16,13,52,4.80
2008,12,16,13,53,6.40
2008,12,16,13,54,3.20
2008,12,16,13,55,9.60
2008,12,16,13,56,3.20
2008,12,16,13,57,4.80
2008,12,16,13,58,11.30
2008,12,16,13,59,6.40
2008,12,16,14,00,11.30
2008,12,16,14,01,6.40
2008,12,16,14,02,9.60
2008,12,16,14,03,9.60
2008,12,16,14,04,9.60
2008,12,16,14,05,9.60
2008,12,16,14,06,11.30
2008,12,16,14,07,9.60
2008,12,16,14,08,6.40
2008,12,16,14,09,3.20
2008,12,16,14,10,4.80
2008,12,16,14,11,8.10
2008,12,16,14,12,9.60
2008,12,16,14,13,3.20
2008,12,16,14,14,9.60
2008,12,16,14,15,6.40
2008,12,16,14,16,9.60
2008,12,16,14,17,9.60
2008,12,16,14,18,6.40
2008,12,16,14,19,6.40
2008,12,16,14,20,1.60
2008,12,16,14,21,11.30
2008,12,16,14,22,9.60
2008,12,16,14,23,8.10
2008,12,16,14,24,4.80
2008,12,16,14,25,6.40
2008,12,16,14,26,11.30
2008,12,16,14,27,9.60
2008,12,16,14,28,6.40
2008,12,16,14,29,6.40
2008,12,16,14,30,4.80
2008,12,16,14,31,11.30
2008,12,16,14,32,6.40
2008,12,16,14,33,9.60
2008,12,16,14,34,9.60
2008,12,16,14,35,11.30
2008,12,16,14,36,11.30
2008,12,16,14,37,6.40
2008,12,16,14,38,4.80
2008,12,16,14,39,9.60
2008,12,16,14,40,9.60
2008,12,16,14,41,4.80
2008,12,16,14,42,4.80
2008,12,16,14,43,8.10
2008,12,16,14,44,9.60
2008,12,16,14,45,8.10
2008,12,16,14,46,6.40
2008,12,16,14,47,8.10
2008,12,16,14,48,8.10
2008,12,16,14,49,11.30
2008,12,16,14,50,8.10
2008,12,16,14,51,4.80
2008,12,16,14,52,6.40
2008,12,16,14,53,4.80
2008,12,16,14,54,4.80
2008,12,16,14,55,9.60
2008,12,16,14,56,11.30
2008,12,16,14,57,8.10
2008,12,16,14,58,9.60
2008,12,16,14,59,9.60
2008,12,16,15,00,4.80
2008,12,16,15,01,8.10
2008,12,16,15,02,3.20
2008,12,16,15,03,3.20
2008,12,16,15,04,4.80
2008,12,16,15,05,8.10
2008,12,16,15,06,11.30
2008,12,16,15,07,4.80
2008,12,16,15,08,4.80
2008,12,16,15,09,8.10
2008,12,16,15,10,8.10
2008,12,16,15,11,9.60
2008,12,16,15,12,9.60
2008,12,16,15,13,6.40
2008,12,16,15,14,8.10
2008,12,16,15,15,6.40
2008,12,16,15,16,6.40
2008,12,16,15,17,11.30
2008,12,16,15,18,8.10
2008,12,16,15,19,4.80
2008,12,16,15,20,8.10
2008,12,16,15,21,6.40
2008,12,16,15,22,4.80
2008,12,16,15,23,8.10
2008,12,16,15,24,8.10
2008,12,16,15,25,4.80
2008,12,16,15,26,8.10
2008,12,16,15,27,3.20
2008,12,16,15,28,6.40
2008,12,16,15,29,8.10
2008,12,16,15,30,8.10
2008,12,16,15,31,9.60
2008,12,16,15,32,6.40
2008,12,16,15,33,11.30
2008,12,16,15,34,11.30
2008,12,16,15,35,4.80
2008,12,16,15,36,6.40
2008,12,16,15,37,4.80
2008,12,16,15,38,9.60
2008,12,16,15,39,8.10
2008,12,16,15,40,4.80
2008,12,16,15,41,9.60
2008,12,16,15,42,6.40
2008,12,16,15,43,6.40
2008,12,16,15,44,4.80
2008,12,16,15,45,4.80
2008,12,16,15,46,9.60
2008,12,16,15,47,6.40
2008,12,16,15,48,9.60
2008,12,16,15,49,8.10
2008,12,16,15,50,4.80
2008,12,16,15,51,4.80
2008,12,16,15,52,4.80
2008,12,16,15,53,6.40
2008,12,16,15,54,4.80
2008,12,16,15,55,3.20
2008,12,16,15,56,0.00
2008,12,16,15,57,4.80
2008,12,16,15,58,1.60
2008,12,16,15,59,4.80
2008,12,16,16,00,3.20
2008,12,16,16,01,3.20
2008,12,16,16,02,1.60
2008,12,16,16,03,6.40
2008,12,16,16,04,3.20
2008,12,16,16,05,3.20
2008,12,16,16,06,6.40
2008,12,16,16,07,4.80
2008,12,16,16,08,6.40
2008,12,16,16,09,6.40
2008,12,16,16,10,6.40
2008,12,16,16,11,6.40
2008,12,16,16,12,3.20
2008,12,16,16,13,3.20
2008,12,16,16,14,3.20
2008,12,16,16,15,3.20
2008,12,16,16,16,3.20
2008,12,16,16,17,3.20
2008,12,16,16,18,3.20
2008,12,16,16,19,1.60
2008,12,16,16,20,1.60
2008,12,16,16,21,3.20
2008,12,16,16,22,1.60
2008,12,16,16,23,1.60
2008,12,16,16,24,0.00
2008,12,16,16,25,0.00
2008,12,16,16,26,1.60
2008,12,16,16,27,1.60
2008,12,16,16,28,0.00
2008,12,16,16,29,0.00
2008,12,16,16,30,1.60
2008,12,16,16,31,0.00
2008,12,16,16,32,0.00
2008,12,16,16,33,0.00
2008,12,16,16,34,3.20
2008,12,16,16,35,0.00
2008,12,16,16,36,1.60
2008,12,16,16,37,0.00
2008,12,16,16,38,1.60
2008,12,16,16,39,1.60
2008,12,16,16,40,3.20
2008,12,16,16,41,1.60
2008,12,16,16,42,1.60
2008,12,16,16,43,0.00
2008,12,16,16,44,1.60
2008,12,16,16,45,1.60
2008,12,16,16,46,3.20
2008,12,16,16,47,3.20
2008,12,16,16,48,3.20
2008,12,16,16,49,1.60
2008,12,16,16,50,4.80
2008,12,16,16,51,3.20
2008,12,16,16,52,1.60
2008,12,16,16,53,1.60
2008,12,16,16,54,1.60
2008,12,16,16,55,1.60
2008,12,16,16,56,4.80
2008,12,16,16,57,1.60
2008,12,16,16,58,1.60
2008,12,16,16,59,0.00
2008,12,16,17,00,0.00
2008,12,16,17,01,0.00
2008,12,16,17,02,0.00
2008,12,16,17,03,3.20
2008,12,16,17,04,1.60
2008,12,16,17,05,1.60
2008,12,16,17,06,1.60
2008,12,16,17,07,0.00
2008,12,16,17,08,1.60
2008,12,16,17,09,0.00
2008,12,16,17,10,1.60
2008,12,16,17,11,1.60
2008,12,16,17,12,1.60
2008,12,16,17,13,4.80
2008,12,16,17,14,1.60
2008,12,16,17,15,3.20
2008,12,16,17,16,3.20
2008,12,16,17,17,3.20
2008,12,16,17,18,4.80
2008,12,16,17,19,4.80
2008,12,16,17,20,4.80
2008,12,16,17,21,4.80
2008,12,16,17,22,3.20
2008,12,16,17,23,4.80
2008,12,16,17,24,3.20
2008,12,16,17,25,3.20
2008,12,16,17,26,6.40
2008,12,16,17,27,3.20
2008,12,16,17,28,4.80
2008,12,16,17,29,3.20
2008,12,16,17,30,3.20
2008,12,16,17,31,4.80
2008,12,16,17,32,4.80
2008,12,16,17,33,4.80
2008,12,16,17,34,3.20
2008,12,16,17,35,3.20
2008,12,16,17,36,3.20
2008,12,16,17,37,4.80
2008,12,16,17,38,3.20
2008,12,16,17,39,3.20
2008,12,16,17,40,4.80
2008,12,16,17,41,4.80
2008,12,16,17,42,3.20
2008,12,16,17,43,3.20
2008,12,16,17,44,3.20
2008,12,16,17,45,3.20
2008,12,16,17,46,3.20
2008,12,16,17,47,4.80
2008,12,16,17,48,4.80
2008,12,16,17,49,4.80
2008,12,16,17,50,3.20
2008,12,16,17,51,4.80
2008,12,16,17,52,3.20
2008,12,16,17,53,1.60
2008,12,16,17,54,3.20
2008,12,16,17,55,1.60
2008,12,16,17,56,3.20
2008,12,16,17,57,1.60
2008,12,16,17,58,1.60
2008,12,16,17,59,1.60
2008,12,16,18,00,3.20
2008,12,16,18,01,0.00
2008,12,16,18,02,0.00
2008,12,16,18,03,1.60
2008,12,16,18,04,3.20
2008,12,16,18,05,0.00
2008,12,16,18,06,1.60
2008,12,16,18,07,1.60
2008,12,16,18,08,3.20
2008,12,16,18,09,4.80
2008,12,16,18,10,1.60
2008,12,16,18,11,0.00
2008,12,16,18,12,1.60
2008,12,16,18,13,1.60
2008,12,16,18,14,0.00
2008,12,16,18,15,1.60
2008,12,16,18,16,4.80
2008,12,16,18,17,3.20
2008,12,16,18,18,1.60
2008,12,16,18,19,1.60
2008,12,16,18,20,1.60
2008,12,16,18,21,0.00
2008,12,16,18,22,0.00
2008,12,16,18,23,0.00
2008,12,16,18,24,1.60
2008,12,16,18,25,1.60
2008,12,16,18,26,3.20
2008,12,16,18,27,1.60
2008,12,16,18,28,0.00
2008,12,16,18,29,0.00
2008,12,16,18,30,0.00
2008,12,16,18,31,3.20
2008,12,16,18,32,3.20
2008,12,16,18,33,3.20
2008,12,16,18,34,0.00
2008,12,16,18,35,0.00
2008,12,16,18,36,1.60
2008,12,16,18,37,1.60
2008,12,16,18,38,0.00
2008,12,16,18,39,0.00
2008,12,16,18,40,0.00
2008,12,16,18,41,0.00
2008,12,16,18,42,0.00
2008,12,16,18,43,0.00
2008,12,16,18,44,0.00
2008,12,16,18,45,1.60
2008,12,16,18,46,1.60
2008,12,16,18,47,3.20
2008,12,16,18,48,1.60
2008,12,16,18,49,1.60
2008,12,16,18,50,1.60
2008,12,16,18,51,1.60
2008,12,16,18,52,0.00
2008,12,16,18,53,1.60
2008,12,16,18,54,0.00
2008,12,16,18,55,0.00
2008,12,16,18,56,0.00
2008,12,16,18,57,0.00
2008,12,16,18,58,0.00
2008,12,16,18,59,0.00
2008,12,16,19,00,1.60
2008,12,16,19,01,0.00
2008,12,16,19,02,0.00
2008,12,16,19,03,3.20
2008,12,16,19,04,1.60
2008,12,16,19,05,3.20
2008,12,16,19,06,0.00
2008,12,16,19,07,1.60
2008,12,16,19,08,3.20
2008,12,16,19,09,1.60
2008,12,16,19,10,0.00
2008,12,16,19,11,0.00
2008,12,16,19,12,0.00
2008,12,16,19,13,1.60
2008,12,16,19,14,0.00
2008,12,16,19,15,1.60
2008,12,16,19,16,1.60
2008,12,16,19,17,1.60
2008,12,16,19,18,0.00
2008,12,16,19,19,1.60
2008,12,16,19,20,0.00
2008,12,16,19,21,1.60
2008,12,16,19,22,3.20
2008,12,16,19,23,3.20
2008,12,16,19,24,6.40
2008,12,16,19,25,1.60
2008,12,16,19,26,1.60
2008,12,16,19,27,1.60
2008,12,16,19,28,0.00
2008,12,16,19,29,3.20
2008,12,16,19,30,3.20
2008,12,16,19,31,3.20
2008,12,16,19,32,0.00
2008,12,16,19,33,4.80
2008,12,16,19,34,1.60
2008,12,16,19,35,0.00
2008,12,16,19,36,3.20
2008,12,16,19,37,1.60
2008,12,16,19,38,1.60
2008,12,16,19,39,1.60
2008,12,16,19,40,0.00
2008,12,16,19,41,0.00
2008,12,16,19,42,1.60
2008,12,16,19,43,1.60
2008,12,16,19,44,1.60
2008,12,16,19,45,0.00
2008,12,16,19,46,0.00
2008,12,16,19,47,0.00
2008,12,16,19,48,3.20
2008,12,16,19,49,1.60
2008,12,16,19,50,4.80
2008,12,16,19,51,3.20
2008,12,16,19,52,3.20
2008,12,16,19,53,4.80
2008,12,16,19,54,6.40
2008,12,16,19,55,6.40
2008,12,16,19,56,4.80
2008,12,16,19,57,4.80
2008,12,16,19,58,8.10
2008,12,16,19,59,6.40
2008,12,16,20,00,6.40
2008,12,16,20,01,4.80
2008,12,16,20,02,6.40
2008,12,16,20,03,1.60
2008,12,16,20,04,4.80
2008,12,16,20,05,4.80
2008,12,16,20,06,3.20
2008,12,16,20,07,4.80
2008,12,16,20,08,6.40
2008,12,16,20,09,4.80
2008,12,16,20,10,4.80
2008,12,16,20,11,1.60
2008,12,16,20,12,1.60
2008,12,16,20,13,11.30
2008,12,16,20,14,6.40